Torna al catalogo

INMARSAT 2-F2

AttivoComunicazioniGEO
NORAD 21149·PAYLOAD·🇮🇲 IM

Lanciato Mar 8, 1991 da Cape Canaveral Space Force Station

Loading…

TLE

AggiornatoSource: Space-Track

Epoca: Sep 14, 2026, 20:55 UTC

1 21149U 91018A   26257.87173384  .00000022  00000-0  00000-0 0  9993
2 21149  12.8537   8.6904 0004394 259.9905  96.8868  0.98721840 44339

Traccia INMARSAT 2-F2 in tempo reale con AllMySat

Download on the App Store